Tracking 18980 objects as of 19-Feb-2018
HD Live streaming from Space Station
objects crossing your sky now

USA 142

Track USA 142 now!
USA 142 is classified as:


NORAD ID: 25669
Int'l Code: 1999-017A
Perigee: 610.6 km
Apogee: 34,727.9 km
Inclination: 29.4 °
Period: 618.3 minutes
Semi major axis: 24040 km
RCS: Unknown
Launch date: April 9, 1999
Source: United States (US)
Launch site: AIR FORCE EASTERN TEST RANGE (AFETR)
aabbcc
Your satellite tracking list
Your tracking list is empty




NASA's NSSDC Master Catalog

Two Line Element Set (TLE):
1 25669U 99017A   18044.68656136 0.00000000  00000-0  00000-0 0    05
2 25669  29.3657  34.9406 7095880 255.5755  22.2950  2.32913774    07
Source of the keplerian elements: McCants